CZ-6A DEB

Satellite information

Favourite Embed

Satellite Type and Status

DEBRISIN ORBIT

Key statistics

Satellite CZ-6A DEB at a glance.

Uptime

1024

Days in orbit

Revolutions

≈ 14.3

Per day

Orbit

SSO

Sun Synchronous Orbit

Inclination

98.7

Latest

Satellite identification and parameters

Extended collection of information and parameters for CZ-6A DEB.

Object identification

Identified? True

Debris? True

Object name: CZ-6A DEB

International designator: 2022-151YN

Object number (NORAD): 55540

Object ID (CCSDS): 55540

Country: PEOPLES REPUBLIC OF CHINA (PRC)

Current information (Y/N): Y

RCS size: SMALL

Orbital parameters

Period: 100.355 minutes

Inclination: 98.6797 deg

SMA: 7153.519 km

Apoapsis: 848.833 km

Periapsis: 701.936 km

RAAN: 266.8522 deg

Eccentricy: 0.01026749

Argument of periapsis: 190.8895 deg

Mean anomaly: 169.0067 deg

Mean motion: 14.3490495 rev/day

Mean motion (dot): 0.00001666 rev/day2

B* drag term: 0.00056765733 1/REarth

Two-line elements (TLE)

Creation date: Aug. 31, 2025, 2:26 a.m.

Reference frame: TEME

Reference center: EARTH

Epoch: Aug. 30, 2025, 2:13 p.m. UTC

TLE line 0: 0 CZ-6A DEB

TLE line 1: 1 55540U 22151YN 25242.59283252 .00001666 00000-0 56766-3 0 9993

TLE line 2: 2 55540 98.6797 266.8522 0102675 190.8895 169.0067 14.34904950140798

Live tracking on map

Real-time ground track for satellite CZ-6A DEB.

In-orbit conjunctions

A list of the most updated potential collisions computed for object CZ-6A DEB.

Target Orbit TCA Probability of collision Miss distance Type
SL-8 R/B LEO 2025-01-18 00:11:43 0.0002488867 102.0 (m) ROCKET BODY
THOR ABLESTAR DEB LEO 2024-12-14 19:28:05 0.0001641547 310.0 (m) DEBRIS

Associated space launch

Chinese satellite reported for atmospheric/ocean/environmental/spatial parameter research purposes, details TBD.

CZ-6A DEB was lifted into orbit during the mission ‘Long March 6A | Yunhai 3’, on board a Long March 6A space rocket.

The launch took place on Nov. 11, 2022, 10:52 p.m. from Launch Complex 9A.

For more information about the launch, click the button.

Launch to space Long March 6A | Yunhai 3
Long March 6A | Yunhai 3

Agency: N/A

Status: Launch Successful

Launch date: Nov. 11, 2022, 10:52 p.m. UTC

Rocket: Long March 6A

Launch pad: Launch Complex 9A

Location: Taiyuan Satellite Launch Center, People's Republic of China

...

Latest news about this satellite

There are no fresh news available about this satellite. Check back as we update our databases every day.


Newsletter sign-up

Weekly statistics, charts and insights to help you stay on top of the space industry.